User: anonymous   Login
Location: Unspecified
(0.0000°N, 0.0000°E)
Time: 09:36:16
(UTC+00:00)
Language:

Altair - Orbit

View from above orbital plane
View from above orbital plane
View from above satellite
View from above satellite

Ground track
Ground track

The orbit data is extracted from the following two-line orbital elements,

1    50U 60009B   18049.54839861 -.00000110 +00000-0 -23955-3 0  9997
2    50 047.2290 239.0770 0113505 312.8116 046.3177 12.20102953566455
Epoch (UTC): 18 February 2018 13:09:41
Eccentricity: 0.0113505
inclination: 47.2290°
perigee height: 1501 km
apogee height: 1682 km
right ascension of ascending node: 239.0770°
argument of perigee: 312.8116°
revolutions per day: 12.20102953
mean anomaly at epoch: 46.3177°
orbit number at epoch: 56645

The dashed part of the orbit path shows where the satellite is in the earth's shadow,  

DLR